EW6819 Weather Reports


Display with metric or nautical units.
time (UTC)temp
F
wind
direction
speed
MPH
gust
MPH
rain 1hr
in
rain 24hr
in
rain mn
in
humidity
%
barometer
mb
20260507011003 45 284 3.0 16.0 0.00 1.14 0.89 58 1010.8
20260507010503 45 324 3.0 11.0 0.00 1.19 0.89 58 1010.7
20260507010214 45 317 3.0 11.0 0.00 1.21 0.89 58 1010.7
20260507005503 45 284 4.0 11.0 0.00 1.22 0.89 59 1010.7
20260507005003 45 315 4.0 14.0 0.00 1.22 0.89 59 1010.6
20260507004503 45 342 4.0 14.0 0.00 1.22 0.89 59 1010.4
20260507004003 46 333 3.0 13.0 0.00 1.22 0.89 59 1010.6
20260507003713 45 337 3.0 13.0 0.00 1.22 0.89 59 1010.4
20260507003003 45 353 1.0 5.0 0.00 1.23 0.89 60 1010.3
20260507002503 45 352 1.0 5.0 0.00 1.25 0.89 61 1010.2
20260507002003 46 360 1.0 8.0 0.00 1.25 0.89 61 1010.1
20260507001503 46 1 1.0 8.0 0.00 1.26 0.89 62 1009.9
20260507001214 46 2 0.0 5.0 0.00 1.26 0.89 62 1010.0
20260507000503 46 359 0.0 4.0 0.00 1.26 0.89 62 1010.0
20260507000214 46 3 0.0 4.0 0.00 1.26 0.89 62 1009.9
20260506235713 46 53 1.0 3.0 0.00 1.26 0.89 62 1009.7
20260506235003 46 75 0.0 2.0 0.00 1.26 0.89 62 1009.6
20260506234503 46 114 1.0 2.0 0.00 1.26 0.89 62 1009.7
20260506234003 46 111 0.0 2.0 0.00 1.26 0.89 62 1009.6
20260506233503 46 0 0.0 0.0 0.00 1.26 0.89 62 1009.5
20260506233213 46 0 0.0 0.0 0.00 1.26 0.89 62 1009.4
20260506232503 46 0 0.0 0.0 0.00 1.26 0.89 62 1009.3
20260506232003 46 0 0.0 0.0 0.00 1.27 0.89 62 1009.3
20260506231503 46 0 0.0 0.0 0.00 1.27 0.89 61 1009.3
20260506231003 46 40 1.0 2.0 0.00 1.28 0.89 61 1009.3
20260506230712 46 28 1.0 3.0 0.00 1.28 0.89 61 1009.4
20260506230003 46 19 0.0 3.0 0.00 1.28 0.89 61 1009.2
20260506225503 46 0 0.0 0.0 0.00 1.28 0.89 61 1009.3
20260506225003 46 0 0.0 0.0 0.00 1.28 0.89 62 1009.2
20260506224503 46 0 0.0 0.0 0.00 1.28 0.89 62 1009.2
20260506224003 46 0 0.0 0.0 0.00 1.28 0.89 62 1009.1
20260506223503 46 0 0.0 0.0 0.00 1.28 0.89 61 1009.0
20260506223003 46 0 0.0 0.0 0.00 1.28 0.89 62 1009.0
20260506222714 46 0 0.0 0.0 0.00 1.28 0.89 62 1009.0
20260506222003 46 96 1.0 2.0 0.00 1.28 0.89 61 1008.9
20260506221714 46 96 1.0 2.0 0.00 1.28 0.89 61 1008.9
20260506221213 46 96 0.0 2.0 0.00 1.28 0.89 62 1008.8
20260506220503 46 97 0.0 3.0 0.00 1.28 0.89 62 1008.8
20260506220213 46 97 1.0 3.0 0.00 1.28 0.89 62 1008.8
20260506215503 46 96 1.0 3.0 0.00 1.28 0.89 61 1008.9
20260506215004 46 86 1.0 4.0 0.00 1.28 0.89 61 1009.1
20260506214714 46 85 1.0 4.0 0.00 1.28 0.89 62 1009.0
20260506214003 46 41 0.0 3.0 0.00 1.28 0.89 63 1008.9
20260506213714 46 10 1.0 4.0 0.00 1.28 0.89 63 1008.9
20260506213003 46 316 1.0 5.0 0.00 1.28 0.89 64 1009.0
20260506212503 46 356 1.0 5.0 0.00 1.28 0.89 63 1009.0
20260506212003 46 79 1.0 3.0 0.00 1.28 0.89 64 1008.9
20260506211714 46 79 1.0 3.0 0.00 1.28 0.89 64 1008.9
20260506211003 46 77 1.0 3.0 0.00 1.28 0.89 64 1009.0
20260506210503 46 44 1.0 3.0 0.00 1.28 0.89 64 1009.1
20260506210003 45 14 1.0 4.0 0.00 1.28 0.89 64 1008.9
20260506205503 45 13 2.0 4.0 0.00 1.28 0.89 64 1008.8
20260506205003 45 24 2.0 5.0 0.00 1.28 0.89 64 1008.7
20260506204503 45 24 3.0 5.0 0.00 1.28 0.89 64 1008.8
20260506204003 45 2 3.0 6.0 0.00 1.28 0.89 65 1008.8
20260506203503 45 353 3.0 6.0 0.00 1.28 0.89 64 1008.8
20260506203003 45 358 3.0 6.0 0.00 1.28 0.89 64 1008.8
20260506202503 45 9 2.0 6.0 0.00 1.28 0.89 64 1008.9
20260506202003 45 25 1.0 6.0 0.00 1.28 0.89 64 1008.9
20260506201503 45 27 2.0 4.0 0.00 1.28 0.89 64 1008.9
20260506201212 45 30 2.0 5.0 0.00 1.28 0.89 64 1008.9
20260506200503 45 35 2.0 5.0 0.00 1.28 0.89 64 1008.8
20260506200003 45 70 2.0 4.0 0.00 1.28 0.89 64 1008.7
20260506195503 46 52 3.0 7.0 0.00 1.28 0.89 64 1008.8
20260506195003 46 18 3.0 7.0 0.00 1.28 0.89 65 1008.7
20260506194503 45 352 2.0 5.0 0.00 1.28 0.89 65 1008.6
20260506194214 45 341 1.0 5.0 0.00 1.28 0.89 65 1008.6
20260506193503 45 349 1.0 4.0 0.01 1.28 0.89 65 1008.6
20260506193214 45 355 2.0 6.0 0.01 1.28 0.89 65 1008.5
20260506192503 45 350 3.0 9.0 0.01 1.29 0.89 65 1008.4
20260506192003 45 345 3.0 9.0 0.01 1.29 0.89 65 1008.5
20260506191503 45 356 2.0 6.0 0.01 1.29 0.89 65 1008.5
20260506191003 45 2 2.0 6.0 0.01 1.29 0.89 65 1008.5
20260506190503 45 359 2.0 6.0 0.01 1.29 0.89 66 1008.5
20260506190004 44 354 2.0 6.0 0.01 1.29 0.89 65 1008.4
20260506185503 44 353 2.0 5.0 0.01 1.29 0.89 65 1008.5
20260506185003 44 357 3.0 6.0 0.01 1.29 0.89 65 1008.5
20260506184503 44 2 3.0 6.0 0.01 1.29 0.89 65 1008.4
20260506184003 44 9 3.0 5.0 0.01 1.29 0.89 65 1008.3
20260506183503 44 6 3.0 8.0 0.00 1.28 0.88 65 1008.3
20260506183003 44 5 3.0 8.0 0.00 1.28 0.88 65 1008.2
20260506182503 44 1 3.0 8.0 0.00 1.28 0.88 66 1008.3
20260506182003 44 341 2.0 10.0 0.00 1.28 0.88 65 1008.2
20260506181503 44 324 2.0 10.0 0.00 1.28 0.88 65 1008.2
20260506181214 44 319 2.0 10.0 0.00 1.28 0.88 65 1008.3
20260506180503 44 325 2.0 6.0 0.00 1.28 0.88 66 1008.3
20260506180004 44 344 2.0 5.0 0.00 1.28 0.88 66 1008.2
20260506175503 44 350 2.0 7.0 0.00 1.28 0.88 65 1008.3
20260506175003 44 347 2.0 7.0 0.00 1.28 0.88 65 1008.2
20260506174714 44 352 2.0 7.0 0.00 1.28 0.88 65 1008.2
20260506174003 44 18 2.0 5.0 0.00 1.28 0.88 65 1008.0
20260506173503 44 36 2.0 4.0 0.00 1.28 0.88 66 1007.9
20260506173003 44 28 2.0 5.0 0.00 1.28 0.88 66 1007.9
20260506172503 44 26 2.0 5.0 0.00 1.28 0.88 66 1007.7
20260506172213 44 22 3.0 5.0 0.00 1.28 0.88 66 1007.7
20260506171503 44 37 3.0 5.0 0.00 1.28 0.88 66 1007.7
20260506171003 44 30 3.0 5.0 0.00 1.28 0.88 66 1007.6
20260506170503 44 14 2.0 5.0 0.00 1.28 0.88 66 1007.6
20260506170004 44 21 1.0 5.0 0.00 1.28 0.88 65 1007.6
20260506165503 44 39 1.0 4.0 0.00 1.28 0.88 65 1007.6
20260506165003 44 48 2.0 6.0 0.00 1.29 0.88 65 1007.5
20260506164503 44 53 3.0 6.0 0.00 1.29 0.88 65 1007.6
20260506164003 44 29 3.0 6.0 0.00 1.29 0.88 66 1007.5
20260506163503 44 12 3.0 6.0 0.00 1.29 0.88 65 1007.5
20260506163003 44 21 3.0 6.0 0.00 1.29 0.88 66 1007.5
20260506162503 44 22 3.0 6.0 0.01 1.29 0.88 66 1007.4
20260506162003 44 19 2.0 5.0 0.01 1.29 0.88 66 1007.4
20260506161503 44 41 3.0 7.0 0.02 1.29 0.88 66 1007.4
20260506161003 44 57 3.0 7.0 0.02 1.29 0.88 66 1007.3
20260506160503 44 44 2.0 6.0 0.02 1.29 0.88 66 1007.3
20260506160003 44 27 2.0 6.0 0.02 1.29 0.88 66 1007.4
20260506155714 44 28 3.0 6.0 0.02 1.29 0.88 66 1007.5
20260506155213 44 18 2.0 6.0 0.02 1.29 0.88 66 1007.7
20260506154503 43 18 1.0 4.0 0.02 1.29 0.88 66 1007.8
20260506154003 43 27 2.0 5.0 0.03 1.29 0.88 66 1007.8
20260506153503 43 49 3.0 6.0 0.03 1.29 0.88 66 1007.8
20260506153003 43 64 4.0 8.0 0.03 1.29 0.88 66 1007.6
20260506152503 43 49 4.0 8.0 0.02 1.28 0.87 66 1007.6
20260506152003 43 29 2.0 7.0 0.02 1.28 0.87 66 1007.6
20260506151503 42 6 2.0 6.0 0.02 1.27 0.86 66 1007.7
20260506151003 42 355 2.0 6.0 0.02 1.27 0.86 66 1007.7
20260506150503 42 4 2.0 5.0 0.02 1.27 0.86 66 1007.7
20260506150003 42 19 1.0 4.0 0.02 1.27 0.86 66 1007.6
20260506145503 42 12 1.0 4.0 0.02 1.27 0.86 66 1007.6
20260506145003 42 7 2.0 6.0 0.02 1.27 0.86 66 1007.4
20260506144503 42 10 3.0 6.0 0.02 1.27 0.86 66 1007.3
20260506144003 42 22 3.0 7.0 0.01 1.26 0.85 66 1007.2
20260506143503 42 29 2.0 7.0 0.01 1.26 0.85 66 1007.0
20260506143214 42 28 3.0 7.0 0.01 1.26 0.85 66 1007.1
20260506142503 41 32 3.0 7.0 0.02 1.26 0.85 66 1007.0
20260506142003 41 25 3.0 8.0 0.02 1.26 0.85 66 1007.0
20260506141503 41 2 4.0 9.0 0.01 1.25 0.85 66 1007.1
20260506141003 41 1 5.0 10.0 0.01 1.25 0.84 66 1006.9
20260506140713 41 1 5.0 10.0 0.01 1.25 0.84 66 1007.1
20260506140003 41 4 4.0 9.0 0.01 1.25 0.84 66 1007.1
20260506135503 41 6 4.0 8.0 0.02 1.25 0.84 66 1007.1
20260506135003 41 6 4.0 8.0 0.02 1.25 0.84 65 1007.0
20260506134503 41 14 3.0 8.0 0.02 1.25 0.84 66 1007.3
20260506134003 41 21 3.0 7.0 0.02 1.25 0.84 66 1007.2
20260506133503 41 11 2.0 7.0 0.03 1.25 0.84 66 1007.2
20260506133003 41 7 3.0 8.0 0.04 1.25 0.84 66 1007.2
20260506132503 41 8 3.0 8.0 0.04 1.24 0.83 66 1007.1
20260506132003 41 2 4.0 8.0 0.04 1.24 0.83 66 1007.1
20260506131503 41 357 4.0 10.0 0.05 1.24 0.83 66 1007.1
20260506131003 41 357 3.0 10.0 0.06 1.24 0.83 66 1007.2
20260506130503 41 357 4.0 10.0 0.08 1.24 0.83 66 1007.2
20260506130214 41 357 4.0 11.0 0.09 1.24 0.83 66 1007.2
20260506125503 41 354 5.0 11.0 0.10 1.23 0.82 66 1007.2
20260506125003 41 351 4.0 11.0 0.10 1.23 0.82 66 1007.2
20260506124503 41 348 4.0 9.0 0.11 1.23 0.82 66 1007.3
20260506124003 41 345 4.0 10.0 0.12 1.23 0.82 66 1007.4
20260506123503 41 350 4.0 10.0 0.12 1.22 0.81 66 1007.2
20260506123003 41 354 3.0 8.0 0.12 1.21 0.80 65 1007.4
20260506122503 41 350 3.0 9.0 0.11 1.20 0.80 65 1007.7
20260506122003 41 349 4.0 10.0 0.12 1.20 0.79 65 1007.6
20260506121503 41 350 5.0 11.0 0.12 1.19 0.78 65 1007.5
20260506121003 41 355 6.0 12.0 0.11 1.18 0.77 65 1007.3
20260506120503 41 358 7.0 16.0 0.09 1.16 0.75 65 1007.5
20260506120003 41 358 7.0 16.0 0.08 1.14 0.73 65 1007.3
20260506115503 41 4 7.0 14.0 0.08 1.13 0.72 65 1007.2
20260506115003 42 11 7.0 14.0 0.08 1.13 0.72 65 1006.9
20260506114503 42 8 6.0 11.0 0.08 1.12 0.71 65 1006.9
20260506114213 42 5 6.0 12.0 0.08 1.11 0.70 65 1006.8
20260506113503 41 10 7.0 15.0 0.08 1.10 0.69 65 1006.7
20260506113003 42 5 8.0 15.0 0.08 1.09 0.68 65 1006.7
20260506112503 42 359 8.0 16.0 0.08 1.09 0.68 65 1006.7
20260506112213 42 360 7.0 16.0 0.08 1.08 0.67 65 1006.7
20260506111503 41 5 7.0 14.0 0.08 1.07 0.66 65 1006.7
20260506111003 42 5 8.0 15.0 0.09 1.07 0.66 65 1006.8
20260506110503 41 1 8.0 16.0 0.11 1.07 0.66 65 1006.9
20260506110003 41 356 7.0 16.0 0.11 1.06 0.65 65 1006.7
20260506105503 42 355 7.0 14.0 0.11 1.05 0.64 65 1006.7
20260506105003 42 4 7.0 14.0 0.13 1.05 0.64 65 1006.8
20260506104503 42 8 8.0 15.0 0.13 1.04 0.63 65 1006.7
20260506104003 42 3 8.0 15.0 0.13 1.03 0.62 65 1006.9
20260506103503 42 3 8.0 16.0 0.13 1.02 0.61 65 1006.8
20260506103003 42 6 8.0 16.0 0.13 1.01 0.60 65 1006.9
20260506102503 43 11 7.0 14.0 0.14 1.01 0.60 65 1006.9
20260506102213 43 13 6.0 13.0 0.14 1.00 0.59 65 1006.9
20260506101503 43 10 7.0 12.0 0.16 0.99 0.58 65 1006.8
20260506101003 43 6 7.0 12.0 0.15 0.98 0.57 65 1007.0
20260506100503 43 6 7.0 12.0 0.14 0.96 0.55 65 1007.0
20260506100004 43 8 6.0 12.0 0.13 0.95 0.54 65 1006.8
20260506095503 43 4 7.0 15.0 0.13 0.94 0.53 65 1006.7
20260506095212 43 3 6.0 15.0 0.13 0.93 0.52 65 1006.6
20260506094503 44 9 5.0 13.0 0.12 0.91 0.50 65 1006.7
20260506094003 44 12 6.0 11.0 0.12 0.90 0.49 65 1006.7
20260506093503 44 14 5.0 11.0 0.11 0.89 0.48 65 1006.8
20260506093004 44 17 4.0 10.0 0.11 0.88 0.47 65 1006.6
20260506092503 44 17 5.0 10.0 0.10 0.87 0.46 65 1006.7
20260506092003 44 5 6.0 13.0 0.09 0.85 0.44 65 1006.6
20260506091503 44 358 7.0 14.0 0.08 0.83 0.42 65 1006.6
20260506091003 44 358 6.0 14.0 0.08 0.83 0.42 65 1006.4
20260506090503 44 359 6.0 12.0 0.08 0.82 0.41 65 1006.6
20260506090003 44 360 6.0 12.0 0.09 0.82 0.41 65 1006.7
20260506085503 44 9 5.0 12.0 0.09 0.81 0.40 65 1006.8
20260506085003 45 9 5.0 12.0 0.09 0.80 0.39 65 1006.9
20260506084503 45 5 5.0 12.0 0.09 0.79 0.38 65 1006.7
20260506084003 45 7 5.0 11.0 0.10 0.78 0.37 65 1006.9
20260506083503 45 8 4.0 10.0 0.10 0.78 0.37 65 1006.9
20260506083003 45 6 5.0 10.0 0.11 0.77 0.36 65 1007.1
20260506082503 45 6 4.0 10.0 0.14 0.77 0.36 65 1007.1
20260506082003 45 14 5.0 10.0 0.14 0.76 0.35 65 1007.2
20260506081713 45 13 5.0 10.0 0.17 0.76 0.35 65 1007.1
20260506081003 45 14 5.0 10.0 0.19 0.75 0.34 65 1007.2
20260506080503 45 6 4.0 10.0 0.19 0.74 0.33 65 1007.1
20260506073003 45 354 4.0 10.0 0.14 0.67 0.25 65 1007.0
20260506072503 46 334 4.0 10.0 0.11 0.64 0.22 65 1007.2
20260506072003 46 339 3.0 8.0 0.10 0.63 0.21 65 1007.2
20260506071503 46 19 2.0 5.0 0.07 0.59 0.17 65 1007.0
20260506071003 46 28 2.0 4.0 0.05 0.57 0.15 64 1006.7
20260506070503 46 17 2.0 4.0 0.05 0.56 0.14 64 1006.6
20260506062503 46 0 0.0 0.0 0.04 0.54 0.11 64 1006.8
20260506062213 46 0 0.0 0.0 0.05 0.54 0.11 64 1007.0
20260506061503 46 0 0.0 0.0 0.05 0.53 0.10 64 1007.2
20260506061003 46 0 0.0 0.0 0.06 0.53 0.10 64 1007.3
20260506060503 46 0 0.0 0.0 0.05 0.52 0.09 64 1007.4
20260506060213 46 105 0.0 3.0 0.05 0.52 0.09 64 1007.3
20260506051213 46 82 1.0 4.0 0.04 0.47 0.04 64 1008.5
20260506050714 46 54 1.0 3.0 0.04 0.47 0.04 64 1008.5
20260506050213 46 0 0.0 0.0 0.04 0.47 0.04 64 1008.8
20260506044714 46 136 1.0 4.0 0.01 0.44 0.01 64 1008.6
20260506044003 46 137 1.0 3.0 0.01 0.44 0.01 64 1008.8
20260506043503 46 165 2.0 5.0 0.00 0.43 0.00 63 1008.8
20260506043003 46 49 3.0 8.0 0.00 0.43 0.00 64 1009.5
20260506042503 46 21 3.0 8.0 0.00 0.43 0.00 64 1008.7
20260506042003 46 12 2.0 6.0 0.00 0.43 0.00 63 1008.9
20260506041503 46 16 2.0 7.0 0.00 0.44 0.00 63 1008.6
20260506041003 46 26 1.0 7.0 0.00 0.46 0.00 64 1008.1
20260506040503 46 27 0.0 5.0 0.00 0.47 0.00 63 1008.4
20260506040003 46 0 0.0 0.0 0.00 0.47 0.00 63 1008.5
20260506035503 46 0 0.0 0.0 0.00 0.47 0.47 63 1008.6
20260506035004 46 0 0.0 0.0 0.00 0.47 0.47 63 1008.8
20260506034503 46 0 0.0 0.0 0.00 0.47 0.47 63 1008.6
20260506034003 46 0 0.0 0.0 0.00 0.47 0.47 63 1008.6
20260506033503 46 17 1.0 3.0 0.01 0.47 0.47 63 1008.7
20260506033003 46 17 1.0 3.0 0.02 0.47 0.47 63 1008.7
20260506032503 46 10 2.0 4.0 0.03 0.47 0.47 63 1008.7
20260506032003 46 4 2.0 6.0 0.03 0.47 0.47 63 1008.8
20260506031503 46 358 2.0 6.0 0.04 0.47 0.47 62 1008.8
20260506031003 46 343 1.0 3.0 0.05 0.47 0.47 62 1008.9
20260506030503 46 345 2.0 5.0 0.07 0.47 0.47 62 1008.9
20260506030003 46 353 2.0 5.0 0.09 0.47 0.47 62 1008.8
20260506025713 46 359 2.0 5.0 0.10 0.47 0.47 62 1008.8
20260506025003 46 3 3.0 5.0 0.15 0.47 0.47 62 1008.9
20260506024503 46 2 2.0 5.0 0.16 0.47 0.47 62 1009.0
20260506024003 46 7 2.0 5.0 0.17 0.47 0.47 62 1009.2
20260506023503 46 358 3.0 5.0 0.16 0.46 0.46 61 1009.4
20260506023003 46 356 2.0 5.0 0.16 0.45 0.45 61 1009.0
20260506022503 46 359 2.0 7.0 0.15 0.44 0.44 60 1009.3
20260506022003 46 358 3.0 7.0 0.16 0.44 0.44 60 1009.2
20260506021503 46 359 4.0 10.0 0.16 0.43 0.43 59 1009.2
20260506021214 46 1 4.0 10.0 0.19 0.43 0.43 59 1009.3
20260506020712 46 353 4.0 10.0 0.23 0.41 0.41 59 1009.2
20260506020003 46 341 4.0 9.0 0.23 0.38 0.38 58 1009.5
20260506015503 46 350 4.0 9.0 0.23 0.37 0.37 57 1009.0
20260506015003 47 4 4.0 9.0 0.18 0.32 0.32 57 1009.2
20260506014503 47 15 3.0 9.0 0.17 0.31 0.31 57 1009.0
20260506014003 47 3 2.0 7.0 0.16 0.30 0.30 57 1008.8
20260506013712 47 343 2.0 6.0 0.16 0.30 0.30 57 1008.8
20260506013003 48 351 3.0 7.0 0.16 0.29 0.29 57 1008.9
20260506012503 48 4 2.0 7.0 0.18 0.29 0.29 57 1009.0
20260506012003 48 12 2.0 4.0 0.17 0.28 0.28 57 1008.9
20260506011503 48 20 1.0 3.0 0.17 0.27 0.27 56 1008.9